User: anonymous   Login
Location: Unspecified
(0.0000°N, 0.0000°E)
Time: 01:42:34
(UTC+00:00)
Language:

NOSS 3-3 (C) - Orbit

View from above orbital plane
View from above orbital plane
View from above satellite
View from above satellite

Ground track
Ground track

The orbit data is extracted from the following two-line orbital elements,

1 28541U 05004C   17098.89737188 0.00000000  00000-0  00000-0 0    08
2 28541  63.4240   5.1928 0258000 358.4305   1.5695 13.40728255    02
Epoch (UTC): 08 April 2017 21:32:12
Eccentricity: 0.0258000
inclination: 63.4240°
perigee height: 913 km
apogee height: 1299 km
right ascension of ascending node: 5.1928°
argument of perigee: 358.4305°
revolutions per day: 13.40728255
mean anomaly at epoch: 1.5695°
orbit number at epoch: 0

The dashed part of the orbit path shows where the satellite is in the earth's shadow,  

DLR